CZ-6A DEB, 54406

Orbit data source: Space-Track

CZ-6A DEB, 54406 is space debris in SSO originally from a launch on Fri, 11 Nov 2022 UTC launched from the Taiyaun Space Center, China (TSC). Debris objects in space refer to the collection of defunct objects orbiting the Earth. Examples of debris include non-operational satellites, rocket bodies, and fragments generated from explosions, collisions, or faulty payload assembly.

Loading next visibility...
Identifier
54406, 2022-151EE
Orbit
SSO
Country
Flag of CNCN / PRC
Related business
Manufacturer
SAST
Mission
Spacecraft
Bus & Motor
Unknown
Mass
Unknown
Launch date (UTC)
2022-11-11 (4 years ago)
Launch vehicle
Unknown
Launch site
Taiyaun Space Center, China (TSC)
Object type
Payload
Rocket body
Debris
Shape & HBR
Unknown shape, 0.1 m
Radar Cross Section
Medium (>0.1 m² and <1 m²)

Expand to show TLE details & history
Last TLE update: 18 hours ago

TLE from 18 hours ago
0 CZ-6A DEB
1 54406U 22151EE  26235.48469686  .00002594  00000-0  74007-3 0  9990
2 54406  98.6061 257.5520 0105929 207.4718 152.0848 14.42834272197611
Epoch: 2026-08-23T11:37Z
TLE epoch observation values (Epoch: 2026-08-23T11:37:57.808Z)
Latitude
-0.00003°
Longitude
111.28105°
Altitude
818.999 km
Speed
7.409 km/s
True Right ascension
17h 10m 12s
True Declination
0° 00' 00"
Sunlit
Object was in daylight at epoch
Visualization orbit readout
Latitude
Unknown
Longitude
Unknown
Altitude
Unknown
Speed
Unknown
Apparent Right ascension
Unknown
Apparent Declination
Unknown
Sunlit
N/A
Visualization observer readout
Local Sidereal Time
21:13:33
Azimuth
Unknown
Elevation
Unknown
Doppler factor
Unknown
Orbital elements
Apogee altitude
821.74 km
Perigee altitude
670.804 km
Semi-major axis
7,124.409 km
Eccentricity
0.01059
Inclination
98.6061°
RAAN
257.552°
Arg. of periapsis
207.4718°
True anomaly
152.6465°
Mean anomaly
152.0848°
Eccentric anomaly
152.3663°
Mean motion
3.60927 °/min
Orbital period
99.74 mins
BSTAR
0.00074007
Loading maneuver chart data...
Computing Atmospheric mass density...
Loading historical data...
Loading historical data...
Loading historical data...
Loading historical data...
Loading historical data...
Loading historical data...
Loading historical data...

Documentation

Showing up to 5 results
|